Location: Beetenbrück
(52.8113°N, 9.5946°E)
Time: 21:39:45
(UTC+00:00)

MOS 1 - Pass Details

Date: 14 April 2026
Orbit: 877 x 888 km, 98.8° (Epoch: 12 May)

Event Time Altitude Azimuth Distance (km) Brightness Sun altitude
Rises 18:48:27 0° 147° (SSE) 3,464 6.9 -5.0°
Reaches altitude 10° 18:50:51 10° 144° (SE) 2,530 6.2 -5.3°
Maximum altitude 18:56:21 57° 67° (ENE) 1,030 4.5 -6.1°
Drops below altitude 10° 19:01:54 10° 350° (N) 2,552 7.2 -6.8°
Sets 19:04:20 0° 347° (NNW) 3,496 8.0 -7.2°
